Weather Roundup
Issued by NWS

Home | Current Version | Previous Version | Text Only | Print | Product List | Glossary On
Versions: 1 2 3 4 5 6 7 8 9 10 11 12 13 14 15 16 17 18 19 20 21 22 23 24 25 26 27 28 29 30 31 32 33 34 35 36 37 38 39 40 41 42 43 44 45 46 47 48 49 50
000
NZUS93 KARX 051459
HRRWXR

CURRENT HOURLY OBSERVATIONS ACROSS
MUCH OF THE UPPER MISSISSIPPI VALLEY
NATIONAL WEATHER SERVICE LA CROSSE WI
900 AM CST MON DEC 05 2016


...SOUTHEAST MINNESOTA...


CITY           SKY/WX    TMP DP  RH WIND       PRES   REMARKS
ROCHESTER      CLOUDY    31  30  96 S15       29.81S FOG     WCI  20
ROCHESTER/MAYO CLOUDY    32  32 100 SE12      29.82R WCI  23
WINONA         CLOUDY    34  32  93 SE7       29.86S FOG     WCI  28
AUSTIN         CLOUDY    30  30 100 S9        29.80F FOG     WCI  22
ALBERT LEA     CLOUDY    36  36 100 SE13      29.77F FOG     WCI  27
DODGE CENTER   MOSUNNY   34  30  86 S15       29.79S WCI  24
PRESTON        CLOUDY    30  29  97 S12       29.85R FOG     WCI  20
OWATONNA       CLOUDY    34  30  86 SE18      29.76S WCI  23
FARIBAULT      CLOUDY    36  30  80 SE12G17   29.77F WCI  27
$$

...ELSEWHERE IN MINNESOTA...


CITY           SKY/WX    TMP DP  RH WIND       PRES   REMARKS
MINNEAPOLIS    CLOUDY    31  28  89 SE10      29.77S WCI  22
INTNL FALLS    CLOUDY    29  26  89 W3        29.73R
DULUTH         PTCLDY    31  26  82 W5        29.76R WCI  26
RED WING       CLOUDY    34  30  86 SE13      29.80R FOG     WCI  25
REDWOOD FALLS  CLOUDY    34  30  85 SE12      29.65F WCI  25
MANKATO        CLOUDY    35  31  85 SE15      29.72F WCI  25
WORTHINGTON    CLOUDY    36  30  79 S18       29.64R WCI  26
FAIRMONT       CLOUDY    35  31  85 S13       29.71F WCI  26
$$

...SOUTHWEST WISCONSIN...


CITY           SKY/WX    TMP DP  RH WIND       PRES   REMARKS
LA CROSSE      CLOUDY    35  32  88 S12       29.88S FOG     WCI  27
PRAIRIE DU CHI CLOUDY    33  32  95 CALM      29.91F FOG
BOSCOBEL       CLOUDY    34  32  92 S6        29.93S FOG     WCI  29
LONE ROCK      CLOUDY    33  31  92 S7        29.94S FOG     WCI  27
PLATTEVILLE    CLOUDY    32  32 100 S9        29.93S VSB<1/4 WCI  24
FORT MC COY    CLOUDY    33  32  96 CALM      29.89S FOG
MAUSTON-NEW LI CLOUDY    33  32  95 SE3       29.89R FOG
VIROQUA        CLOUDY    32  32 100 S8        29.88S VSB<1/4 WCI  25
WIS DELLS      CLOUDY    32  32  98 S8        29.91S FOG     WCI  25
$$

...ELSEWHERE IN WISCONSIN...


CITY           SKY/WX    TMP DP  RH WIND       PRES   REMARKS
MILWAUKEE      CLOUDY    34  31  88 SW10      29.98R WCI  26
MADISON        CLOUDY    33  32  96 S6        29.93S FOG     WCI  28
GREEN BAY      CLOUDY    34  32  92 SW7       29.91R WCI  28
EAU CLAIRE     NOT AVBL
BLACK RVR FLS  CLOUDY    33  33 100 S5        29.88R FOG     WCI  29
MEDFORD        FOG       30  29  99 S3        29.83S VSB 1/4
WAUSAU         PTSUNNY   32  29  88 W5        29.85S WCI  27
WIS RAPIDS     CLOUDY    33  32  96 SW8       29.90R WCI  26
MARSHFIELD     CLOUDY    31  30  96 S8        29.85R FOG     WCI  23
RICE LAKE      FOG       27  26  97 SE8       29.84R VSB<1/4 WCI  19
$$

...NORTHEAST IOWA...


CITY           SKY/WX    TMP DP  RH WIND       PRES   REMARKS
WATERLOO       CLOUDY    32  31  96 S12       29.88S FOG     WCI  23
DUBUQUE        SNOW      30  30 100 S13       29.92F VSB 1/4 WCI  20
DECORAH        FOG       32  32 100 VRB7G13   29.86F VSB<1/4 WCI  26
MASON CITY     CLOUDY    31  30  96 SE13      29.81F FOG     WCI  21
CHARLES CITY   FOG       32  32 100 SE14      29.85S VSB<1/4 WCI  22
OELWEIN        FOG       32  32 100 S14       29.89R VSB<1/4 WCI  22
$$

...ELSEWHERE IN IOWA...


CITY           SKY/WX    TMP DP  RH WIND       PRES   REMARKS
DES MOINES     CLOUDY    34  32  92 S10       29.85S WCI  26
IOWA CITY      FOG       32  31  96 SE10      29.95S VSB 1/4 WCI  24
FORT DODGE     CLOUDY    36  28  75 S9        29.78R WCI  29
MARSHALLTOWN   FOG       32  32 100 SE10      29.85F VSB 1/2 WCI  24
CEDAR RAPIDS   FOG       31  31 100 S9        29.91S VSB 1/4 WCI  23
$$

...NORTHERN ILLINOIS...


CITY           SKY/WX    TMP DP  RH WIND       PRES   REMARKS
CHICAGO-OHARE  CLOUDY    32  31  96 S8        30.02R FOG     WCI  25
CHICAGO-MIDWAY CLOUDY    33  30  88 S10       30.04R FOG     WCI  25
MOLINE         FOG       32  30  92 SE8       29.98S VSB 1/2 WCI  25
ROCKFORD       FOG       31  30  96 S12       30.01R VSB 1/4 WCI  22
PEORIA         CLOUDY    34  33  96 S13       30.04R FOG     WCI  25
$$

NOTE: "FAIR" INDICATES FEW OR NO CLOUDS BELOW 12,000 FEET WITH NO
SIGNIFICANT WEATHER AND/OR OBSTRUCTIONS TO VISIBILITY. WIND
SPEEDS ARE IN MILES-PER-HOUR.




USA.gov is the U.S. government's official web portal to all federal, state and local government web resources and services.